www.pogodaiklimat.ru

Погода и климат >> Архив погоды >> Мексика >> Choix


ПОГОДА в Choix

  • Прогноз погоды в Choix
  • Монитор погоды в Choix
  • Климат города

АРХИВ ПОГОДЫ в Choix

Время (UTC), дата Ветер
(напр.,м/с)
 
Видим.   Явления Облачность Т
(С)
Тd
(С)
f
(%)
Тe
(С)
Тes
(С)
Комфортность P
(гПа)
Po
(гПа)
Тmin
(С)
Tmax
(С)
R
(мм)
S
(см)
03 16.03 ЮЗ 1 2000 м ясно +28.3 +23.2 74 +38 +38 очень
душно
1012.6 986.3
06 16.03 З 1 8000 м ясно +21.5 +19.0 86 +26 +26 душно 1013.4 987.0 +15.2 +39.3
09 16.03 ЮЗ 1 8000 м ясно +18.8 +17.3 91 +21 +21 комфорт 1013.6 986.8
12 16.03 ЮЗ 1 8000 м ясно +16.2 +14.6 90 +17 +17 1013.4 986.1 +16.0 +39.3
15 16.03 В 1 30 км 5/0
[Cs]
+16.5 +14.7 89 +17 +21 1014.8 987.1
18 16.03 СВ 1 30 км 5/0
[Cs]
+30.2 +25.1 74 +44 +60 опасность
перегрева
1014.8 987.2 +15.1 +30.6
00 17.03 З 2 30 км 3/3 600 м
[Cu med, cong]
+37.4 +25.9 52 +52 +54 опасность
перегрева
1010.0 983.0 +15.1 +38.0
03 17.03 штиль 0 2000 м ясно +27.2 +25.3 89 +39 +39 очень
душно
1012.3 985.8
06 17.03 штиль 0 8000 м ясно +22.0 +18.8 82 +27 +27 душно 1013.6 987.0 +15.1 +38.0
09 17.03 штиль 0 8000 м ясно +19.0 +16.9 88 +20 +20 1013.6 986.8
12 17.03 штиль 0 8000 м ясно +16.2 +14.5 90 +16 +16 1013.5 986.3 +14.0 +38.0
15 17.03 штиль 0 30 км ясно +21.0 +14.4 66 +24 +28 комфорт 1014.9 987.4
21 17.03 З 1 30 км ясно +38.3 +27.3 54 +57 +73 опасность
перегрева
1011.3 984.0
00 18.03 З 2 30 км ясно +37.3 +27.6 58 +57 +58 опасность
перегрева
1009.6 983.0 +15.0 +38.6
03 18.03 штиль 0 2000 м 3/3 750 м
[Sc diur, vesp]
+29.9 +22.0 63 +39 +39 очень
душно
1013.0 986.6
06 18.03 штиль 0 2000 м 3/3 750 м
[Sc diur, vesp]
+23.4 +18.1 72 +29 +29 душно 1013.9 987.5 +15.0 +38.6
09 18.03 штиль 0 7000 м ясно +20.7 +16.7 78 +24 +24 комфорт 1014.6 987.9
12 18.03 штиль 0 7000 м ясно +18.0 +14.8 82 +18 +18 1014.8 987.6 +17.8 +38.6
15 18.03 штиль 0 30 км ясно +21.1 +17.6 80 +25 +30 комфорт 1016.8 989.3
18 18.03 штиль 0 30 км ясно +35.4 +28.6 68 +58 +79 опасность
перегрева
1016.2 988.8 +16.2 +35.6
21 18.03 З 1 30 км 4/4 750 м
[Sc diur, vesp]
+39.0 +30.7 63 +67 +77 опасность
перегрева
1012.6 985.7
00 19.03 ЮВ 3 30 км 4/4 600 м
[Sc diur, vesp]
+38.0 +29.7 63 +63 +64 опасность
перегрева
1010.9 984.5 +16.2 +40.0
03 19.03 штиль 0 2000 м {морось} 8/8 600 м
[Frnb]
+26.0 +21.5 76 +33 +33 очень
душно
1013.4 987.1 1
06 19.03 штиль 0 2000 м {морось} ясно +23.1 +19.5 80 +30 +30 очень
душно
1014.3 987.9 +16.2 +40.0 1
09 19.03 штиль 0 6000 м ясно +19.2 +16.4 84 +21 +21 комфорт 1013.7 986.8
12 19.03 штиль 0 6000 м ясно +17.2 +15.5 90 +17 +17 1013.5 986.2 +17.2 +40.0
15 19.03 штиль 0 30 км ясно +21.3 +18.8 86 +26 +31 душно 1015.9 988.3
18 19.03 штиль 0 30 км ясно +34.5 +28.2 70 +56 +78 опасность
перегрева
1015.5 988.1 +16.1 +34.8
21 19.03 З 1 30 км ясно +40.0 +31.0 61 +69 +86 опасность
перегрева
1012.8 985.9
00 20.03 З 1 30 км ясно +38.6 +31.8 69 +72 +74 опасность
перегрева
1011.0 984.6 +16.1 +40.8
03 20.03 ЮЗ 2 2000 м ясно +30.5 +23.7 67 +42 +42 опасность
перегрева
1013.3 987.0
06 20.03 штиль 0 2000 м ясно +23.5 +18.0 71 +28 +28 душно 1014.2 987.9 +16.1 +40.8
09 20.03 штиль 0 8000 м ясно +19.9 +15.4 75 +22 +22 комфорт 1013.3 986.7
12 20.03 штиль 0 5000 м ясно +17.2 +13.8 80 +17 +17 1013.6 986.5 +17.0 +40.8
15 20.03 штиль 0 30 км ясно +19.6 +19 +24 1015.7 988.2
18 20.03 штиль 0 30 км ясно +33.9 +27.4 69 +53 +75 опасность
перегрева
1015.4 988.0 +16.8 +34.2
21 20.03 З 2 30 км ясно +37.7 +28.9 61 +60 +75 опасность
перегрева
1012.4 985.4
00 21.03 З 2 30 км ясно +38.0 +29.3 61 +62 +63 опасность
перегрева
1010.3 983.8 +16.8 +38.8
03 21.03 ЮЗ 1 2000 м ясно +28.9 +22.3 68 +38 +38 очень
душно
1011.5 985.3
06 21.03 ЮЗ 1 2000 м ясно +23.5 +18.2 72 +28 +28 душно 1013.9 987.5 +16.8 +38.8
09 21.03 штиль 0 2000 м ясно +18.5 +13.7 74 +19 +19 1014.2 987.5
12 21.03 штиль 0 5000 м ясно +15.6 +11.9 79 +15 +15 1014.0 986.8 +15.4 +38.8
15 21.03 штиль 0 30 км ясно +24.3 +11.2 44 +26 +26 жарко 1016.1 988.4
18 21.03 штиль 0 30 км ясно +35.3 +17.5 35 +53 +75 опасность
перегрева
1014.5 986.9 +14.1 +35.6
21 21.03 штиль 0 30 км ясно +38.7 +24.0 43 +50 +69 опасность
перегрева
1011.6 984.5
00 22.03 штиль 0 30 км ясно +38.1 +23.9 44 +49 +51 опасность
перегрева
1009.1 982.6 +14.1 +40.6
03 22.03 штиль 0 2000 м ясно +28.5 +20.3 61 +35 +35 очень
душно
1010.8 984.6
06 22.03 штиль 0 2000 м ясно +20.9 +14.8 68 +24 +24 комфорт 1011.8 985.5 +14.1 +40.6
09 22.03 штиль 0 2000 м ясно +16.9 +12.8 77 +17 +17 1011.3 984.7
12 22.03 штиль 0 2000 м ясно +14.4 +11.0 80 +14 +14 1011.6 984.5 +14.2 +40.6
15 22.03 штиль 0 2000 м ясно +14.4 +11.0 80 +14 +19 1011.6 984.5 +14.2 +40.6
18 22.03 штиль 0 30 км ясно +33.5 +24.2 58 +45 +68 опасность
перегрева
1012.8 985.2 +13.4 +33.8
21 22.03 З 3 30 км ясно +38.4 +26.1 50 +54 +66 опасность
перегрева
1010.0 982.9

 

Местоположение метеостанции Choix (Мексика): широта 26.73 долгота -108.20 высота над уровнем моря 238 м.

В архиве по умолчанию представлена погода в Choix за последнюю неделю. Архивные данные за месяц целиком и за предыдущие месяцы, начиная с января 2011 года, Вы можете получить, выбрав интересующий диапазон дат из раскрывающегося списка и нажав кнопку "Ввод!".

Внимание! Время в таблицах - всемирное. Для получения местного времени необходимо прибавить поправку, которая в Choix равна -6 ч.

Смотрите также архив погоды в соседних городах и на ближайших метеорологических станциях:

Погода в Ciudad Obregon (Мексика) (177 км)
Погода в Culiacan (Мексика) (229 км)
Погода в Temosachic (Мексика) (250 км)
Погода в Hidalgo del Parral (Мексика) (259 км)
Погода в Empalme (Мексика) (282 км)
Погода в Tepehuanes (Мексика) (292 км)
Погода в Guaymas Upper Air Site (Мексика) (296 км)
Погода в Chihuahua (Мексика) (303 км)
Погода в Chihuahua University (Мексика) (303 км)
Погода в Loreto (Мексика) (319 км)

Пояснения к столбцам:

Ветер - указаны скорость ветра в м/с - средняя за 10 мин, порывы в срок и между сроками (в фигурных скобках) и направление, откуда дует ветер: С - северный, СВ - северо-восточный, В - восточный, ЮВ - юго-восточный, Ю - южный, ЮЗ - юго-западный, З - западный, СЗ - северо-западный.
Видимость - горизонтальная дальность видимости в метрах или километрах. При видимости от 1 до 10 км при отсутствии осадков обычно наблюдается дымка, при ухудшении видимости до 1 км и менее - туман. В сухую погоду видимость может ухудшаться дымом, пылью или мглою.
Явления - указаны атмосферные явления, наблюдавшиеся в срок или в последний час перед сроком; фигурными скобками обозначены явления, наблюдавшиеся между сроками (за 1-3 часа до срока); квадратными скобками обозначены град или гололедные отложения с указанием их диаметра в мм.
Облачность - указаны через наклонную черту общая и нижняя облачность в баллах и высота нижней границы облаков в метрах; квадратными скобками обозначены формы облаков: Ci - перистые, Cs - перисто-слоистые, Cc - перисто-кучевые, Ac - высококучевые, As - высокослоистые, Sc - слоисто-кучевые, Ns - слоисто-дождевые, Cu - кучевые, Cb - кучево-дождевые. Подробнее классификацию облаков см. в Атласе облаков (PDF).
T - Температура воздуха - температура, измеренная на высоте 2 м над землей.
Td - Температура точки росы - температура, при понижении до которой содержащийся в воздухе водяной пар достигнет насыщения.
f - Относительная влажность воздуха - влажноcть воздуха, измеренная на высоте 2 м над землей.
Te - Эффективная температура - температура, которую ощущает одетый по сезону человек в тени. Характеристика душности погоды. При расчете учитывается влияние влажности воздуха и скорости ветра на теплоощущения человека.
Tes - Эффективная температура на солнце - температура, которую ощущает человек, с поправкой на солнечный нагрев. Характеристика знойности погоды. Зависит от высоты солнца над горизонтом, облачности и скорости ветра. Ночью, в пасмурную погоду, а также при ветре 12 м/с и более поправка равна нулю.
P - Атмосферное давление - приведенное к уровню моря атмосферное давление.
Po - Атмосферное давление - измеренное на уровне метеостанции атмосферное давление.
Tmin - Минимальная температура - минимум температуры воздуха на высоте 2 м над землей.
Tmax - Максимальная температура - максимум температуры воздуха на высоте 2 м над землей.
R - Количество осадков - Количество выпавших осадков, мм. При наведении курсора мыши на число - период времени, за который выпало указанное количество осадков.
S - Снежный покров - Высота снежного покрова, см. При наведении курсора мыши на число - состояние снежного покрова и степень покрытия местности в баллах.